Probability
0 0 32 26 23 19 23 23 35 35 32 29 26 26 32 35 45 45 52 48 45 48 45 35 45 42 29 26 35 32 32 32 26 35 42 45 39 32 23 32 32 16 32
0 0 29 26 19 19 26 29 26 29 29 29 26 26 23 29 39 39 39 42 42 45 39 32 32 39 32 23 26 26 19 16 16 16 10 10 42 32 26 35 35 13 32
0 3 13 26 16 19 16 23 23 23 23 23 26 23 23 26 32 35 29 32 35 39 23 26 23 23 23 16 13 16 16 26 16 6 3 0 6 26 23 29 39 29 19
3 3 6 19 13 23 16 23 19 23 23 26 26 26 26 26 23 23 29 26 32 26 26 23 19 16 13 16 13 16 16 13 13 3 0 0 0 16 19 23 26 19 29
3 3 6 23 13 19 13 23 19 13 13 19 23 23 19 19 19 26 26 26 19 19 19 19 16 13 10 13 6 10 10 10 0 0 0 0 0 13 19 26 29 23 29
3 3 3 16 16 13 13 19 19 16 16 13 16 19 16 16 23 26 19 23 23 19 16 16 16 13 16 10 6 3 6 6 3 0 0 0 0 13 13 26 26 26 29
0 0 3 16 16 10 10 16 16 13 16 13 13 3 13 16 13 16 16 23 16 16 13 16 13 10 6 10 10 6 6 0 0 0 0 0 0 6 6 16 26 26 23
0 0 3 13 13 13 13 13 13 13 16 13 10 6 6 10 13 13 10 16 16 13 16 13 10 10 10 6 6 3 3 0 0 0 0 0 0 6 10 16 23 29 29
0 0 0 3 3 6 10 10 10 10 16 16 13 10 10 10 10 13 6 10 13 13 13 13 13 10 10 6 3 0 0 0 0 0 0 0 3 10 13 19 19 29 23
0 0 0 0 3 3 3 3 3 3 3 3 3 3 3 0 3 10 6 3 13 13 13 16 13 10 10 3 0 0 0 0 0 0 0 0 3 6 13 19 19 23 23
0 0 0 0 0 3 0 0 0 0 0 0 0 0 0 0 0 0 0 0 6 13 13 13 13 10 3 0 0 0 0 0 0 0 0 0 10 10 10 16 23 23 19
0 0 0 0 0 3 0 0 0 0 0 0 0 0 0 0 0 0 0 0 0 3 10 10 6 6 0 0 0 0 0 0 0 0 0 0 6 10 10 16 23 23 16
0 0 0 0 0 3 0 0 0 0 0 0 0 0 0 0 0 0 0 0 0 0 0 3 3 0 0 0 0 0 0 0 0 0 0 0 6 10 13 13 26 19 19
0 0 0 0 0 0 0 0 0 0 0 0 0 0 0 0 0 0 0 0 0 0 0 0 0 0 0 0 0 0 0 0 0 0 0 0 3 6 10 13 13 16 23
0 0 0 0 0 0 0 0 0 0 0 0 0 0 0 0 0 0 0 0 0 0 0 0 0 0 0 0 0 0 0 0 0 0 0 0 0 3 6 6 6 13 16
0 0 0 0 0 0 0 0 0 0 0 0 0 0 0 0 0 0 0 0 0 0 0 0 0 0 0 0 0 0 0 0 0 0 0 0 0 0 3 6 3 10 13
0 0 0 0 0 0 0 0 0 0 0 0 0 0 0 0 0 0 0 0 0 0 0 0 0 0 0 0 0 0 0 0 0 0 0 0 0 0 0 6 6 10 10
0 0 0 0 0 0 0 0 0 0 0 0 0 0 0 0 0 0 0 0 0 0 0 0 0 0 0 0 0 0 0 0 0 0 0 0 0 0 0 0 6 6 10
0 0 0 0 0 0 0 0 0 0 0 0 0 0 0 0 0 0 0 0 0 0 0 0 0 0 0 0 0 0 0 0 0 0 0 0 0 0 0 0 0 0 3
0 0 0 0 0 0 0 0 0 0 0 0 0 0 0 0 0 0 0 0 0 0 0 0 0 0 0 0 0 0 0 0 0 0 0 0 0 0 0 0 0 0 0
0 0 0 0 0 0 0 0 0 0 0 0 0 0 0 0 0 0 0 0 0 0 0 0 0 0 0 0 0 0 0 0 0 0 0 0 0 0 0 0 0 0 0
0 0 0 0 0 0 0 0 0 0 0 0 0 0 0 0 0 0 0 0 0 0 0 0 0 0 0 0 0 0 0 0 0 0 0 0 0 0 0 0 0 0 0
0 0 0 0 0 0 0 0 0 0 0 0 0 0 0 0 0 0 0 0 0 0 0 0 0 0 0 0 0 0 0 0 0 0 0 0 0 0 0 0 0 0 0
0 0 0 0 0 0 0 0 0 0 0 0 0 0 0 0 0 0 0 0 0 0 0 0 0 0 0 0 0 0 0 0 0 0 0 0 0 0 0 0 0 0 0
0 0 0 0 0 0 0 0 0 0 0 0 0 0 0 0 0 0 0 0 0 0 0 0 0 0 0 0 0 0 0 0 0 0 0 0 0 0 0 0 0 0 0
0 0 0 0 0 0 0 0 0 0 0 0 0 0 0 0 0 0 0 0 0 0 0 0 0 0 0 0 0 0 0 0 0 0 0 0 0 0 0 0 0 0 0
Height
5833 5833 5833 5833 5833 5834 5834 5834 5834 5835 5835 5836 5836 5837 5837 5838 5838 5839 5840 5840 5841 5841 5842 5843 5843 5844 5845 5846 5847 5847 5848 5848 5849 5850 5851 5852 5853 5854 5854 5855 5855 5856 5856
5830 5830 5830 5831 5831 5831 5832 5832 5832 5833 5833 5833 5834 5834 5835 5836 5836 5837 5838 5838 5839 5839 5840 5841 5841 5842 5843 5844 5845 5846 5846 5847 5848 5849 5850 5851 5852 5853 5853 5854 5855 5855 5856
5827 5827 5827 5828 5828 5828 5829 5829 5830 5830 5830 5831 5831 5832 5832 5833 5834 5834 5835 5836 5837 5837 5838 5838 5839 5840 5841 5842 5843 5844 5845 5845 5846 5847 5848 5849 5850 5851 5852 5853 5854 5854 5855
5823 5823 5824 5824 5825 5825 5826 5826 5826 5827 5827 5828 5828 5829 5829 5830 5830 5831 5832 5833 5834 5835 5835 5836 5837 5838 5839 5839 5840 5842 5842 5843 5844 5845 5846 5847 5848 5850 5850 5851 5852 5853 5853
5819 5820 5820 5820 5821 5821 5822 5823 5823 5823 5824 5824 5825 5825 5826 5826 5827 5828 5829 5830 5831 5832 5832 5833 5834 5835 5836 5837 5838 5839 5840 5841 5842 5843 5844 5845 5846 5847 5848 5849 5850 5851 5852
5815 5815 5816 5816 5816 5817 5817 5818 5819 5819 5820 5820 5821 5822 5822 5823 5823 5824 5825 5826 5827 5828 5829 5830 5831 5832 5833 5834 5835 5836 5837 5838 5839 5840 5842 5843 5844 5845 5846 5847 5848 5849 5850
5810 5810 5811 5811 5811 5812 5813 5813 5814 5815 5815 5816 5817 5817 5818 5819 5819 5820 5821 5822 5823 5824 5825 5826 5827 5828 5829 5830 5831 5832 5834 5835 5836 5837 5838 5840 5841 5842 5843 5844 5845 5846 5847
5804 5805 5805 5805 5806 5806 5807 5808 5809 5810 5810 5811 5812 5813 5813 5814 5815 5816 5816 5818 5818 5819 5821 5821 5823 5824 5825 5826 5827 5828 5830 5831 5832 5834 5835 5836 5837 5838 5840 5841 5842 5843 5844
5799 5799 5799 5799 5799 5800 5801 5802 5803 5804 5805 5805 5806 5807 5808 5809 5810 5811 5812 5812 5814 5815 5816 5817 5818 5819 5820 5821 5823 5824 5825 5827 5828 5829 5831 5832 5834 5835 5836 5837 5838 5840 5841
5793 5792 5792 5792 5792 5793 5794 5795 5796 5797 5798 5799 5800 5802 5803 5804 5805 5806 5806 5807 5808 5809 5811 5812 5813 5814 5815 5816 5818 5819 5820 5822 5823 5824 5826 5828 5829 5830 5832 5833 5834 5836 5837
5786 5785 5785 5785 5786 5786 5787 5788 5789 5790 5791 5793 5794 5795 5796 5797 5799 5800 5800 5801 5802 5804 5805 5806 5807 5808 5809 5811 5812 5813 5815 5816 5817 5819 5821 5822 5824 5825 5827 5828 5830 5831 5832
5779 5779 5778 5778 5778 5779 5780 5780 5781 5782 5784 5785 5786 5788 5789 5791 5792 5793 5794 5795 5796 5797 5798 5799 5801 5802 5803 5805 5806 5807 5809 5810 5811 5813 5815 5816 5818 5819 5821 5823 5824 5826 5827
5772 5771 5771 5771 5771 5771 5772 5773 5773 5774 5776 5777 5779 5780 5782 5783 5784 5786 5787 5788 5789 5790 5791 5792 5794 5795 5796 5798 5799 5801 5802 5803 5805 5807 5808 5810 5812 5813 5815 5817 5818 5820 5822
5764 5764 5763 5763 5763 5763 5763 5764 5765 5766 5767 5768 5770 5772 5773 5775 5776 5777 5779 5779 5781 5782 5783 5785 5786 5788 5789 5790 5792 5793 5795 5796 5797 5799 5801 5803 5805 5807 5809 5811 5812 5814 5816
5756 5755 5755 5755 5755 5754 5755 5755 5756 5757 5758 5759 5761 5762 5764 5765 5767 5768 5769 5770 5772 5773 5775 5776 5777 5779 5781 5782 5784 5785 5787 5788 5790 5792 5794 5796 5798 5800 5802 5804 5806 5808 5809
5748 5747 5746 5746 5745 5745 5745 5746 5746 5747 5748 5749 5751 5752 5754 5755 5757 5758 5760 5761 5762 5764 5765 5766 5768 5770 5771 5773 5775 5776 5778 5780 5782 5783 5786 5788 5790 5792 5794 5796 5799 5800 5802
5739 5738 5737 5736 5735 5735 5736 5736 5736 5737 5738 5739 5740 5741 5743 5745 5746 5748 5749 5751 5752 5753 5755 5756 5757 5759 5761 5763 5765 5766 5768 5770 5772 5774 5777 5779 5781 5783 5786 5788 5790 5793 5794
5729 5728 5727 5726 5725 5725 5725 5725 5725 5726 5727 5728 5729 5730 5731 5733 5734 5736 5737 5739 5740 5741 5743 5745 5746 5748 5750 5752 5754 5756 5758 5760 5762 5764 5767 5769 5772 5774 5776 5779 5782 5784 5786
5719 5718 5716 5715 5714 5714 5713 5714 5714 5714 5714 5715 5716 5717 5718 5720 5721 5723 5724 5726 5728 5729 5731 5732 5734 5735 5738 5740 5742 5744 5746 5749 5751 5753 5756 5759 5761 5764 5766 5769 5772 5775 5777
5708 5707 5705 5704 5703 5702 5702 5702 5702 5701 5702 5702 5703 5704 5705 5706 5708 5709 5711 5712 5714 5716 5717 5719 5721 5723 5725 5727 5729 5732 5735 5737 5739 5742 5745 5747 5750 5753 5755 5758 5761 5764 5767
5697 5695 5694 5692 5691 5690 5690 5690 5689 5689 5689 5689 5690 5691 5692 5693 5694 5695 5697 5698 5700 5702 5703 5705 5707 5709 5711 5713 5716 5719 5722 5724 5727 5729 5732 5735 5738 5741 5744 5747 5750 5753 5757
5685 5683 5682 5680 5679 5678 5678 5677 5677 5677 5676 5676 5676 5677 5677 5678 5679 5681 5682 5684 5686 5687 5689 5691 5693 5695 5697 5699 5702 5705 5708 5712 5714 5716 5719 5722 5725 5728 5731 5735 5738 5742 5745
5674 5672 5670 5669 5667 5666 5665 5664 5664 5663 5663 5663 5663 5663 5663 5664 5665 5666 5667 5669 5671 5673 5675 5676 5678 5681 5683 5684 5686 5689 5693 5697 5700 5703 5705 5708 5711 5715 5718 5722 5725 5729 5733
5663 5660 5658 5657 5655 5654 5652 5652 5651 5650 5650 5649 5649 5649 5649 5650 5650 5651 5653 5654 5655 5657 5659 5661 5663 5665 5667 5670 5671 5673 5677 5680 5684 5689 5692 5694 5697 5701 5704 5708 5712 5716 5719
5651 5649 5647 5645 5643 5641 5640 5639 5638 5637 5636 5636 5635 5635 5635 5635 5635 5636 5637 5639 5640 5642 5643 5645 5647 5649 5651 5654 5656 5658 5661 5664 5667 5671 5677 5680 5682 5686 5690 5693 5697 5701 5706
5640 5637 5635 5633 5630 5629 5627 5626 5625 5624 5623 5622 5621 5621 5621 5620 5620 5620 5621 5623 5624 5626 5627 5629 5631 5633 5636 5638 5640 5643 5645 5648 5652 5655 5660 5664 5667 5671 5674 5678 5682 5687 5691
Wind_Speed
11 11 12 11 11 12 12 12 12 11 11 11 11 10 10 10 10 10 10 9 9 9 9 9 8 8 8 7 6 6 6 7 7 7 7 6 6 6 6 6 5 5 4
13 13 13 13 13 13 13 13 13 12 12 12 12 12 12 12 12 11 11 11 11 11 11 11 11 10 10 10 9 8 8 8 8 8 8 8 7 7 7 7 6 6 5
14 15 15 15 15 15 15 15 14 14 14 14 14 13 13 14 14 14 13 13 13 12 12 12 12 12 12 12 11 10 9 9 9 9 9 9 9 9 8 8 7 7 7
17 17 17 17 17 17 17 16 16 16 16 16 16 15 15 15 15 15 15 14 14 14 14 14 13 13 13 13 12 12 11 11 11 10 10 10 10 10 10 9 9 9 8
19 19 19 19 20 20 19 19 18 18 18 18 17 18 17 17 16 16 16 16 16 16 15 15 15 14 14 14 14 13 13 13 13 13 12 12 12 12 11 11 11 10 10
21 21 22 22 22 22 22 21 21 20 20 20 20 20 19 19 18 18 17 17 18 18 18 17 17 16 16 15 15 15 15 15 14 14 14 14 14 13 13 12 12 11 11
23 23 24 24 24 24 24 24 23 23 23 23 22 22 21 21 20 20 19 19 19 19 19 19 19 18 18 18 18 17 17 17 17 16 16 16 15 15 15 14 14 13 12
25 25 25 26 26 26 26 26 26 25 25 25 24 23 23 23 23 22 22 21 21 21 21 21 21 20 20 20 20 20 19 19 18 18 18 18 17 17 17 16 16 15 14
26 27 27 28 28 28 28 28 28 28 27 27 26 26 25 25 25 25 24 23 23 23 22 22 22 22 22 23 22 22 22 21 21 21 20 20 20 20 19 19 18 17 16
28 29 29 29 29 29 30 30 30 30 29 29 28 28 28 27 26 26 26 25 25 25 25 24 24 24 24 24 24 24 24 24 23 23 23 23 22 22 22 21 21 20 19
29 30 31 30 30 31 32 32 32 32 32 31 31 30 30 29 29 28 28 27 27 26 26 27 26 26 26 26 26 26 26 26 25 25 25 25 24 24 24 23 23 22 22
30 30 31 31 31 32 33 33 34 34 33 33 32 32 32 31 31 30 30 30 29 29 28 28 28 28 28 28 28 27 28 28 27 27 27 27 26 26 26 25 25 25 24
30 31 32 32 32 33 34 35 35 35 35 34 34 34 34 33 33 33 32 32 32 31 31 30 30 30 29 29 29 29 29 29 29 28 29 29 28 28 28 27 26 26 26
32 33 34 33 34 34 35 36 37 37 37 37 36 36 36 35 36 36 35 34 34 34 34 34 33 33 32 32 32 31 31 31 31 30 30 30 30 30 30 29 28 28 28
34 35 35 36 36 36 36 36 37 38 39 39 39 39 39 38 38 38 38 38 37 37 37 37 36 35 35 35 35 34 33 33 33 33 32 32 32 32 32 31 31 29 29
35 36 36 36 37 38 38 38 39 39 40 41 41 41 41 41 41 41 41 41 40 40 40 40 39 39 38 38 38 37 37 36 36 36 35 35 35 34 34 33 33 32 31
37 37 38 38 39 40 40 40 41 41 42 43 44 44 44 44 44 44 43 43 42 42 43 43 42 42 41 41 41 41 41 40 39 39 38 38 38 38 37 36 35 35 34
38 39 39 40 41 42 42 42 43 43 44 45 45 46 46 47 46 46 47 47 46 45 45 46 45 45 44 43 43 43 43 42 42 42 42 41 40 40 40 39 38 38 37
40 40 41 41 42 43 44 44 44 45 45 46 47 47 47 48 48 48 48 48 48 49 48 48 48 48 47 46 46 45 45 44 43 44 44 43 43 43 42 42 41 40 40
42 42 42 43 43 44 44 45 45 46 46 47 48 49 49 49 50 50 50 50 50 50 50 50 50 50 50 49 48 48 47 47 46 45 45 46 46 45 45 45 44 42 42
43 44 44 45 45 45 45 46 46 47 48 48 49 49 50 51 51 51 50 49 50 51 51 51 51 52 52 52 51 50 50 49 49 49 48 48 48 47 47 47 46 45 44
44 44 45 45 45 46 46 47 48 49 49 49 49 49 50 51 52 51 52 51 51 51 52 52 52 51 52 53 53 52 52 52 52 52 52 51 50 50 49 48 48 48 47
43 44 45 45 46 46 47 47 48 49 49 49 49 49 50 51 52 52 53 53 53 52 52 53 54 52 53 54 54 54 54 53 53 53 53 53 52 52 51 51 50 50 50
43 44 45 45 46 46 47 47 48 49 49 49 49 50 50 51 52 52 53 53 53 54 53 53 54 53 54 55 55 56 56 56 56 54 54 54 54 54 53 53 53 52 52
42 44 45 45 46 46 47 48 49 49 49 49 49 50 51 52 52 53 53 54 55 55 55 55 54 54 54 54 55 55 56 55 56 56 55 54 55 55 55 55 55 55 54
43 44 45 46 47 48 48 49 49 49 49 50 50 50 51 51 52 53 54 55 55 55 55 55 55 55 55 55 55 55 55 55 55 56 55 55 55 55 56 57 56 56 56
Wind_Direction
266 264 262 262 261 261 262 263 261 261 260 259 257 255 254 256 258 258 259 259 259 259 261 263 261 257 254 252 253 251 246 242 236 230 227 227 229 227 225 223 223 226 229
268 266 265 264 263 262 262 262 260 261 260 259 260 258 257 257 257 259 261 261 261 260 260 261 260 257 256 256 256 253 248 245 241 236 232 232 232 230 227 225 227 232 236
268 267 265 265 264 263 262 261 259 260 262 262 262 259 259 257 257 258 259 261 261 261 260 260 260 258 257 256 255 254 250 245 242 237 235 234 234 233 232 231 233 238 241
267 267 265 264 264 263 261 260 259 259 260 261 262 261 260 258 257 257 258 259 260 259 260 261 261 259 257 255 254 252 250 248 245 240 239 239 238 237 236 236 238 242 245
266 266 265 265 263 261 261 260 258 259 260 260 260 261 261 261 260 257 257 258 258 259 258 259 261 260 257 255 253 252 250 248 247 245 243 242 241 241 241 241 242 245 248
267 266 266 264 263 261 260 259 258 258 259 260 260 261 261 261 260 259 258 258 258 259 258 258 259 259 257 256 254 253 251 248 246 246 245 243 243 243 244 246 246 246 248
269 268 267 265 263 261 260 258 257 257 258 259 260 260 260 259 260 260 260 259 258 258 257 257 257 258 256 256 255 255 253 251 248 248 247 246 245 245 245 247 248 247 246
270 269 268 267 265 262 261 260 258 257 257 258 258 258 259 258 259 259 259 259 259 259 257 257 257 256 256 256 255 255 254 253 251 248 248 248 247 247 247 245 245 247 246
270 270 269 267 265 262 260 259 258 257 256 257 257 257 257 258 258 259 259 258 258 259 258 258 257 257 256 256 255 255 254 253 252 251 249 249 249 247 247 246 245 245 247
271 270 269 266 264 262 260 258 258 257 256 256 256 256 256 258 258 257 258 258 259 259 258 258 258 257 256 255 255 255 254 253 252 251 251 250 249 248 247 247 247 246 247
272 270 268 266 264 262 260 259 258 257 257 257 256 256 256 257 258 257 257 258 259 259 258 259 258 258 257 257 257 256 255 254 253 251 251 250 249 248 248 248 248 248 248
272 270 268 266 264 263 261 260 259 258 258 257 257 256 256 257 257 257 257 257 258 259 259 258 258 258 257 257 257 257 257 256 255 253 251 249 249 248 248 248 249 250 250
273 270 268 266 264 263 262 261 260 259 258 257 257 257 256 256 257 256 257 258 258 258 258 259 258 258 257 257 257 257 257 256 256 255 252 250 249 248 247 248 249 250 251
274 272 269 267 266 265 264 262 260 259 258 257 257 256 256 256 257 257 256 258 258 258 258 258 259 258 257 257 257 257 257 256 256 254 252 251 249 249 247 247 249 250 251
274 273 271 268 267 266 264 263 262 261 260 258 258 258 257 257 258 258 257 257 258 259 259 259 259 258 257 257 256 256 256 255 255 254 252 250 249 249 248 247 247 249 251
274 273 272 270 268 266 265 264 263 261 261 260 259 259 258 258 258 259 259 259 259 259 260 259 259 259 258 257 256 256 256 255 254 253 252 251 249 248 247 248 248 248 250
276 275 273 270 269 267 266 265 265 263 262 262 262 260 259 260 259 259 259 260 260 260 260 261 260 259 259 257 256 255 255 255 254 253 252 251 250 249 248 248 248 249 250
276 275 273 272 271 269 267 267 266 265 263 263 263 262 261 261 260 260 260 260 260 261 261 261 260 259 258 257 256 255 254 254 253 252 251 251 250 249 248 247 248 249 250
277 276 274 272 272 270 269 268 268 267 265 264 264 264 262 261 261 261 262 261 261 261 261 261 260 259 258 257 256 255 254 254 253 252 252 251 251 250 249 248 248 249 250
278 277 275 274 272 271 270 268 268 267 266 265 265 265 264 262 262 262 262 261 261 260 260 260 260 259 258 257 256 255 254 253 253 252 251 252 251 250 249 248 247 248 249
278 277 277 275 273 272 271 269 268 268 267 266 266 266 264 263 262 261 262 261 261 261 261 261 260 259 258 257 256 255 254 254 253 253 252 251 251 251 249 248 248 248 248
279 278 277 276 274 273 272 270 269 268 269 267 267 266 265 264 263 262 262 261 261 261 261 261 261 260 258 258 257 256 255 254 254 254 253 252 251 251 250 250 248 248 248
279 278 278 277 275 274 273 272 271 270 270 269 267 267 267 265 263 262 263 262 261 260 260 261 260 261 259 258 258 257 256 254 255 254 253 252 251 251 250 250 249 248 248
281 280 278 278 276 275 274 272 272 272 271 270 269 268 268 267 265 263 263 263 262 261 261 261 261 261 260 259 258 258 258 257 256 253 252 252 252 251 250 250 249 248 248
282 280 279 278 277 276 275 274 274 273 272 271 270 269 268 268 266 265 264 263 263 262 261 261 261 260 261 260 259 258 258 258 256 254 252 251 251 250 249 249 248 248 248
284 282 280 280 280 279 278 277 276 275 274 273 272 270 268 268 267 266 264 263 262 262 261 261 261 261 260 260 259 258 258 258 257 255 253 250 250 250 250 249 248 248 248